Other Public Products
Issued by NWS Charleston, SC

Current Version | Previous Version | Graphics & Text | Print | Product List | Glossary On
Versions: 1 2 3 4 5 6 7 8 9 10 11 12 13 14 15 16 17 18 19 20 21 22 23 24 25 26 27 28 29 30 31 32 33 34 35 36 37 38 39 40 41 42 43 44 45 46 47 48 49 50
602
FPUS82 KCHS 220226
OPUCHS

TEST...KCHS/KSAV Gateway Observations...TEST
National Weather Service Charleston SC
1000 PM EDT THU SEP 21 2017

NOTE: "fair" indicates few or no clouds below 12,000 feet with no
significant weather and/or obstructions to visibility.

SCZ050-WAZ558-NCZ071-TXZ119-213-PAZ071-DCZ001-FLZ074-172-MI076-
NYZ176-178-MAZ016-IL014-TNZ027-NJZ106-GAZ044-MD014-220300-

...Gateway Observations for Charleston International...

CITY           SKY/WX    TMP DP  RH WIND       PRES   REMARKS
Chas Airport   MOCLDY    74  65  73 CALM      30.01F
Seattle        MOCLDY    60  45  57 NE7       29.98R
Charlotte      PTCLDY    78  66  66 NE5       30.06R
Dallas DFW     PTCLDY    86  70  58 SE17      29.88R HX  90
Dallas Love    PTCLDY    85  69  58 SE16G29   29.90R
Philladelphia  MOCLDY    75  63  66 CALM      30.03R
Wash National  CLOUDY    77  68  73 N6        30.04R
Baltimore      MOCLDY    71  67  87 CALM      30.02S
Miami          CLOUDY    84  78  82 N3        29.92R HX  95
Detroit        MOCLDY    76  69  79 SE6       30.09F
Newark         MOCLDY    73  61  65 N10       30.02R
Laguardia      CLOUDY    75  64  68 NE7       30.02R
J F K          CLOUDY    74  65  73 N9        30.02S
Boston Logan   CLOUDY    66  53  63 NE20G29   30.04R
Ft. Lauderdale MOCLDY    82  76  81 NE9       29.91R
Chicago O`Hare MOCLDY    81  69  67 SE7       30.00R
Chicago Midway MOCLDY    84  71  65 SE5       30.00S
Houston Bush   CLOUDY    76  73  91 SE6       29.94R
Houston Hobby  CLOUDY    78  73  84 E3        29.94R
Nashville      CLEAR     74  71  91 CALM      30.04R
Atlanta        MOCLDY    81  65  58 N7        30.05R

$$

GAZ044-118-TXZ119-213-NCZ071-DCZ001-MDZ014-506-PAZ021-071-NJZ106-
NYZ176-178-MAZ106-OHZ011-021-055-MIZ076-KYZ091-ILZ014-INZ047-
MNZ060-ONZ431-220300-

...Gateway Observations for Savannah International...

CITY           SKY/WX    TMP DP  RH WIND       PRES   REMARKS
Savannah Arpt  MOCLDY    78  72  81 CALM      30.01F
Atlanta        MOCLDY    81  65  58 N7        30.05R
Charlotte      PTCLDY    78  66  66 NE5       30.06R
Dallas DFW     PTCLDY    86  70  58 SE17      29.88R HX  90
Houston Bush   CLOUDY    76  73  91 SE6       29.94R
Wash National  CLOUDY    77  68  73 N6        30.04R
Wash Dulles    MOCLDY    69  65  86 CALM      30.05R
Baltimore      MOCLDY    71  67  87 CALM      30.02S
Philadelphia   MOCLDY    75  63  66 CALM      30.03R
Newark         MOCLDY    73  61  65 N10       30.02R
Laguardia      CLOUDY    75  64  68 NE7       30.02R
J F K          CLOUDY    74  65  73 N9        30.02S
Boston         CLOUDY    66  53  63 NE20G29   30.04R
Pittsburg      PTCLDY    75  62  64 CALM      30.11R
Akron          PTCLDY    74  63  68 NE9       30.11R
Cleveland      PTCLDY    78  62  57 E5        30.11R
Cincinnati     PTCLDY    74  72  93 CALM      30.07R
Columbus       CLEAR     72  67  84 CALM      30.07S
Detroit        MOCLDY    76  69  79 SE6       30.09F
Chicago O`Hare MOCLDY    81  69  67 SE7       30.00R
Minneapolis    PTCLDY    79  69  71 SE14      29.80R
Indianapolis   PTCLDY    81  66  60 S3        30.06R
Toronto Canada CLEAR     72  61  68 S3        30.13R

$$




USA.gov is the U.S. government's official web portal to all federal, state and local government web resources and services.